• In Austria
  • List of Countries
  • For 7 days
  • Water Temperature
  • Satellite Maps
  • Weather Map
  • News
  • Weather Widgets
  • user-avatar
    Login

    Hourly Weather Gweru

    Today, 18 December, Monday

    Time Temperature Precipitation Wind Pressure Humidity
    00:00 +21°C° 0 mm 2 mps 644 mmHg 41%
    01:00 +21°C° 0 mm 2 mps 644 mmHg 44%
    02:00 +20°C° 0 mm 2 mps 644 mmHg 49%
    03:00 +21°C° 0 mm 1 mps 644 mmHg 54%
    04:00 +20°C° 0 mm 1 mps 644 mmHg 59%
    05:00 +20°C° 0 mm 1 mps 643 mmHg 64%
    06:00 +21°C° 0 mm 2 mps 644 mmHg 60%
    07:00 +24°C° 0 mm 2 mps 645 mmHg 57%
    08:00 +27°C° 0 mm 3 mps 646 mmHg 52%
    09:00 +29°C° 0 mm 2 mps 646 mmHg 44%
    10:00 +32°C° 0 mm 1 mps 646 mmHg 36%
    11:00 +34°C° 0 mm 1 mps 647 mmHg 28%
    12:00 +34°C° 0 mm 1 mps 646 mmHg 28%
    13:00 +33°C° 0 mm 1 mps 645 mmHg 27%
    14:00 +32°C° 0 mm 1 mps 644 mmHg 27%
    15:00 +32°C° 0 mm 1 mps 644 mmHg 28%
    16:00 +31°C° 0 mm 1 mps 643 mmHg 29%
    17:00 +31°C° 0 mm 1 mps 643 mmHg 30%
    18:00 +29°C° 0 mm 1 mps 643 mmHg 33%
    19:00 +28°C° 0 mm 1 mps 642 mmHg 35%
    20:00 +27°C° 0 mm 1 mps 642 mmHg 38%
    21:00 +26°C° 0 mm 1 mps 643 mmHg 39%
    22:00 +26°C° 0 mm 1 mps 643 mmHg 40%
    23:00 +25°C° 0 mm 2 mps 643 mmHg 41%

    Tomorrow, 19 December, Tuesday

    Time Temperature Precipitation Wind Pressure Humidity
    00:00 +25°C° 0 mm 2 mps 643 mmHg 44%
    01:00 +24°C° 0 mm 2 mps 643 mmHg 47%
    02:00 +23°C° 0 mm 2 mps 642 mmHg 50%
    03:00 +21°C° 0 mm 2 mps 642 mmHg 55%
    04:00 +21°C° 0 mm 2 mps 642 mmHg 59%
    05:00 +21°C° 0 mm 1 mps 642 mmHg 63%
    06:00 +23°C° 0 mm 2 mps 643 mmHg 58%
    07:00 +25°C° 0 mm 2 mps 643 mmHg 53%
    08:00 +27°C° 0 mm 2 mps 644 mmHg 47%
    09:00 +29°C° 0 mm 2 mps 645 mmHg 40%
    10:00 +32°C° 0 mm 2 mps 645 mmHg 33%
    11:00 +34°C° 0 mm 1 mps 645 mmHg 26%
    12:00 +35°C° 0 mm 2 mps 645 mmHg 26%
    13:00 +34°C° 0 mm 2 mps 644 mmHg 26%
    14:00 +32°C° 0 mm 2 mps 643 mmHg 26%
    15:00 +32°C° 0 mm 2 mps 643 mmHg 27%
    16:00 +31°C° 0 mm 3 mps 642 mmHg 27%
    17:00 +31°C° 0 mm 3 mps 642 mmHg 28%
    18:00 +30°C° 0 mm 2 mps 642 mmHg 31%
    19:00 +28°C° 0 mm 2 mps 642 mmHg 34%
    20:00 +27°C° 0 mm 2 mps 643 mmHg 37%
    21:00 +26°C° 0 mm 2 mps 643 mmHg 42%
    22:00 +26°C° 0 mm 3 mps 643 mmHg 46%
    23:00 +25°C° 0 mm 3 mps 644 mmHg 51%

    Day after tomorrow, 20 December, Wednesday

    Time Temperature Precipitation Wind Pressure Humidity
    00:00 +24°C° 0.1 mm 3 mps 643 mmHg 58%
    01:00 +22°C° 0.1 mm 3 mps 643 mmHg 65%
    02:00 +21°C° 0.1 mm 2 mps 642 mmHg 73%
    03:00 +21°C° 0.2 mm 2 mps 643 mmHg 76%
    04:00 +20°C° 0.2 mm 2 mps 643 mmHg 79%
    05:00 +21°C° 0.2 mm 1 mps 643 mmHg 82%
    06:00 +21°C° 0.1 mm 2 mps 644 mmHg 75%
    07:00 +24°C° 0.1 mm 2 mps 644 mmHg 69%
    08:00 +25°C° 0.1 mm 3 mps 645 mmHg 63%
    09:00 +26°C° 0.4 mm 3 mps 645 mmHg 58%
    10:00 +28°C° 0.4 mm 3 mps 646 mmHg 54%
    11:00 +29°C° 0.4 mm 4 mps 646 mmHg 49%
    12:00 +29°C° 0.7 mm 4 mps 645 mmHg 48%
    13:00 +29°C° 0.7 mm 4 mps 645 mmHg 48%
    14:00 +29°C° 0.7 mm 4 mps 644 mmHg 47%
    15:00 +29°C° 0.9 mm 4 mps 644 mmHg 50%
    16:00 +28°C° 0.9 mm 4 mps 643 mmHg 53%
    17:00 +27°C° 0.9 mm 4 mps 643 mmHg 57%
    18:00 +26°C° 0.8 mm 5 mps 643 mmHg 64%
    19:00 +23°C° 0.8 mm 5 mps 643 mmHg 72%
    20:00 +22°C° 0.8 mm 5 mps 644 mmHg 79%
    21:00 +21°C° 0.5 mm 5 mps 644 mmHg 81%
    22:00 +21°C° 0.5 mm 5 mps 644 mmHg 83%
    23:00 +20°C° 0.5 mm 4 mps 645 mmHg 84%

    21 December, Thursday

    Time Temperature Precipitation Wind Pressure Humidity
    00:00 +20°C° 0.7 mm 4 mps 644 mmHg 86%
    01:00 +20°C° 0.7 mm 3 mps 644 mmHg 87%
    02:00 +19°C° 0.7 mm 3 mps 643 mmHg 88%
    03:00 +19°C° 0 mm 3 mps 643 mmHg 89%
    04:00 +19°C° 0 mm 2 mps 643 mmHg 90%
    05:00 +18°C° 0 mm 2 mps 644 mmHg 91%
    06:00 +20°C° 0 mm 2 mps 644 mmHg 85%
    07:00 +21°C° 0 mm 3 mps 645 mmHg 78%
    08:00 +22°C° 0 mm 3 mps 646 mmHg 72%
    09:00 +25°C° 0.5 mm 3 mps 646 mmHg 66%
    10:00 +26°C° 0.5 mm 3 mps 646 mmHg 60%
    11:00 +27°C° 0.5 mm 3 mps 646 mmHg 55%
    12:00 +28°C° 1.5 mm 2 mps 645 mmHg 54%
    13:00 +28°C° 1.5 mm 2 mps 645 mmHg 54%
    14:00 +28°C° 1.5 mm 2 mps 644 mmHg 54%
    15:00 +27°C° 2.8 mm 2 mps 644 mmHg 59%
    16:00 +26°C° 2.8 mm 2 mps 643 mmHg 64%
    17:00 +25°C° 2.8 mm 2 mps 643 mmHg 70%
    18:00 +24°C° 1.7 mm 2 mps 643 mmHg 74%
    19:00 +23°C° 1.7 mm 2 mps 643 mmHg 78%
    20:00 +21°C° 1.7 mm 2 mps 643 mmHg 82%
    21:00 +21°C° 0.3 mm 2 mps 643 mmHg 83%
    22:00 +21°C° 0.3 mm 2 mps 644 mmHg 85%
    23:00 +21°C° 0.3 mm 2 mps 644 mmHg 86%

    22 December, Friday

    Time Temperature Precipitation Wind Pressure Humidity
    00:00 +20°C° 0.3 mm 2 mps 643 mmHg 87%
    01:00 +20°C° 0.3 mm 2 mps 643 mmHg 89%
    02:00 +20°C° 0.3 mm 2 mps 642 mmHg 90%
    03:00 +20°C° 0.4 mm 2 mps 642 mmHg 90%
    04:00 +20°C° 0.4 mm 2 mps 642 mmHg 91%
    05:00 +21°C° 0.4 mm 1 mps 643 mmHg 91%
    06:00 +20°C° 0.6 mm 2 mps 643 mmHg 89%
    07:00 +21°C° 0.6 mm 2 mps 643 mmHg 86%
    08:00 +21°C° 0.6 mm 2 mps 644 mmHg 84%
    09:00 +22°C° 0.7 mm 3 mps 644 mmHg 78%
    10:00 +25°C° 0.7 mm 3 mps 644 mmHg 73%
    11:00 +26°C° 0.7 mm 3 mps 644 mmHg 68%
    12:00 +27°C° 1 mm 3 mps 643 mmHg 64%
    13:00 +28°C° 1 mm 3 mps 643 mmHg 60%
    14:00 +29°C° 1 mm 2 mps 643 mmHg 56%
    15:00 +28°C° 2.4 mm 2 mps 642 mmHg 60%
    16:00 +27°C° 2.4 mm 2 mps 642 mmHg 65%
    17:00 +26°C° 2.4 mm 2 mps 642 mmHg 69%
    18:00 +25°C° 1.2 mm 2 mps 642 mmHg 73%
    19:00 +24°C° 1.2 mm 2 mps 642 mmHg 77%
    20:00 +23°C° 1.2 mm 1 mps 642 mmHg 81%
    21:00 +22°C° 0.1 mm 1 mps 642 mmHg 82%
    22:00 +22°C° 0.1 mm 1 mps 642 mmHg 83%
    23:00 +22°C° 0.1 mm 1 mps 642 mmHg 84%

    23 December, Saturday

    Time Temperature Precipitation Wind Pressure Humidity
    00:00 +22°C° 0 mm 1 mps 641 mmHg 84%
    01:00 +22°C° 0 mm 1 mps 641 mmHg 84%
    02:00 +21°C° 0 mm 1 mps 640 mmHg 84%
    03:00 +21°C° 0.1 mm 1 mps 640 mmHg 85%
    04:00 +21°C° 0.1 mm 1 mps 640 mmHg 86%
    05:00 +21°C° 0.1 mm 1 mps 640 mmHg 86%
    06:00 +21°C° 0.4 mm 2 mps 641 mmHg 81%
    07:00 +24°C° 0.4 mm 2 mps 642 mmHg 76%
    08:00 +25°C° 0.4 mm 3 mps 642 mmHg 71%
    09:00 +26°C° 1.2 mm 3 mps 642 mmHg 67%
    10:00 +27°C° 1.2 mm 3 mps 642 mmHg 62%
    11:00 +28°C° 1.2 mm 3 mps 642 mmHg 58%
    12:00 +28°C° 1.9 mm 3 mps 642 mmHg 61%
    13:00 +27°C° 1.9 mm 3 mps 641 mmHg 64%
    14:00 +26°C° 1.9 mm 3 mps 641 mmHg 68%
    15:00 +25°C° 0.2 mm 3 mps 640 mmHg 70%
    16:00 +25°C° 0.2 mm 3 mps 640 mmHg 72%
    17:00 +24°C° 0.2 mm 3 mps 640 mmHg 74%
    18:00 +24°C° 0.2 mm 2 mps 640 mmHg 76%
    19:00 +23°C° 0.2 mm 1 mps 640 mmHg 78%
    20:00 +22°C° 0.2 mm 1 mps 640 mmHg 80%
    21:00 +22°C° 0.5 mm 1 mps 640 mmHg 81%
    22:00 +22°C° 0.5 mm 1 mps 640 mmHg 82%
    23:00 +21°C° 0.5 mm 1 mps 640 mmHg 82%
    Show more